CZ-6A DEB, 54956

Orbit data source: Space-Track

CZ-6A DEB, 54956 is space debris in SSO originally from a launch on Fri, 11 Nov 2022 UTC launched from the Taiyaun Space Center, China (TSC). Debris objects in space refer to the collection of defunct objects orbiting the Earth. Examples of debris include non-operational satellites, rocket bodies, and fragments generated from explosions, collisions, or faulty payload assembly.

Loading next visibility...
Identifier
54956, 2022-151SV
Orbit
SSO
Country
Flag of CNCN / PRC
Related business
Manufacturer
SAST
Mission
Spacecraft
Bus & Motor
Unknown
Mass
Unknown
Launch date (UTC)
2022-11-11 (4 years ago)
Launch vehicle
Unknown
Launch site
Taiyaun Space Center, China (TSC)
Object type
Payload
Rocket body
Debris
Shape & HBR
Unknown shape, 0.1 m
Radar Cross Section
Small (<0.1 m²)

Expand to show TLE details & history
Last TLE update: 13 hours ago

TLE from 13 hours ago
0 CZ-6A DEB
1 54956U 22151SV  26237.38759961  .00000598  00000-0  39816-3 0  9990
2 54956  98.9094 214.4386 0132730 170.6880 189.6793 14.00750087192933
Epoch: 2026-08-25T09:18Z
TLE epoch observation values (Epoch: 2026-08-25T09:18:08.606Z)
Latitude
0.00004°
Longitude
101.24706°
Altitude
989.248 km
Speed
7.309 km/s
True Right ascension
14h 17m 45s
True Declination
0° 00' 00"
Sunlit
Object was in daylight at epoch
Visualization orbit readout
Latitude
Unknown
Longitude
Unknown
Altitude
Unknown
Speed
Unknown
Apparent Right ascension
Unknown
Apparent Declination
Unknown
Sunlit
N/A
Visualization observer readout
Local Sidereal Time
13:19:05
Azimuth
Unknown
Elevation
Unknown
Doppler factor
Unknown
Orbital elements
Apogee altitude
984.841 km
Perigee altitude
791.943 km
Semi-major axis
7,266.529 km
Eccentricity
0.01327
Inclination
98.9094°
RAAN
214.4386°
Arg. of periapsis
170.688°
True anomaly
189.42769°
Mean anomaly
189.6793°
Eccentric anomaly
189.55309°
Mean motion
3.50391 °/min
Orbital period
102.74 mins
BSTAR
0.00039816
Loading maneuver chart data...
Computing Atmospheric mass density...
Loading historical data...
Loading historical data...
Loading historical data...
Loading historical data...
Loading historical data...
Loading historical data...
Loading historical data...

Documentation

Showing up to 5 results
|